Regional Weather Roundup
Issued by NWS

Home | Current Version | Previous Version | Graphics & Text | Print | Product List | Glossary On
Versions: 1 2 3 4 5 6 7 8 9 10 11 12 13 14 15 16 17 18 19 20 21 22 23 24 25 26 27 28 29 30 31 32 33 34 35 36 37 38 39 40 41 42 43 44 45 46 47 48 49 50
000
ASUS45 KABQ 041910
RWRNM
WEATHER ROUNDUP FOR NEW MEXICO
NATIONAL WEATHER SERVICE ALBUQUERQUE NM
1200 PM MST WED MAR 04 2015

NOTE: "FAIR" MEANS FEW OR NO CLOUDS BELOW 12,000 FEET AGL WITH NO
       SIGNIFICANT WEATHER OR OBSTRUCTIONS TO VISION.

      THIS PRODUCT IS RELEASED AS TWO VERSIONS.  ONE VERSION NEAR
      THE TOP OF THE HOUR CONTAINING PRELIMINARY DATA FROM ALBUQUERQUE
      AND OTHER STATIONS.  A FINAL VERSION WITH ADDITIONAL DATA IS
      ISSUED ABOUT 10 MINUTES AFTER THE HOUR.

NMZ501-503-504-510>518-042000-
NORTHWEST PLATEAU/NORTHCENTRAL MOUNTAINS

CITY           SKY/WX    TMP DP  RH WIND       PRES   REMARKS
FARMINGTON     SUNNY     39  18  42 W22G31    30.01R WCI  29
LOS ALAMOS     CLOUDY    35  21  57 NE3       29.95S
SANTA FE       PTSUNNY   40  23  50 SW9       29.93F WCI  34
TAOS           PTSUNNY   34  21  60 S13       29.92F WCI  25
ANGEL FIRE     MOCLDY    30  15  52 W15G21    29.91S WCI  19

$$
NMZ402-403-502-505>509-042000-
WESTCENTRAL MOUNTAINS/SOUTHWEST MOUNTAINS

CITY           SKY/WX    TMP DP  RH WIND       PRES   REMARKS
GALLUP         MOSUNNY   38  24  57 N9        30.02S WCI  31
GRANTS         CLOUDY    41  20  43 N12       30.00F
SILVER CITY    PTSUNNY   48  23  37 NW13      29.97S

$$
NMZ407-409-411-412-042000-
SOUTHERN DESERTS

CITY           SKY/WX    TMP DP  RH WIND       PRES   REMARKS
LORDSBURG      CLOUDY    50  32  50 W8        29.98S
DEMING         CLOUDY    51  32  48 VRB5      29.94S
LAS CRUCES     MOSUNNY   56  28  33 NW6G17    29.93F
HOLLOMAN AFB   MOSUNNY   57  33  39 W9        29.90F
ALAMOGORDO     MOSUNNY   55  32  41 SW3       29.92S
T OR C         CLOUDY    50  26  39 VRB6      29.94S

$$
NMZ519>523-042000-
CENTRAL VALLEYS/CENTRAL HIGHLANDS

CITY           SKY/WX    TMP DP  RH WIND       PRES   REMARKS
ALBUQUERQUE    PTSUNNY   46  19  34 N8        29.97F
MORIARTY ARPT  CLOUDY    44  18  36 NW8       29.96S
CLINES CORNERS FOG       30  27  88 E20       29.93S VSB 3/4 WCI  17
BELEN          CLOUDY    49  20  32 NW10G16   29.97S
SOCORRO          N/A     50  21  32 N6G18     29.95F

$$
NMZ524>526-539-540-042000-
SOUTHCENTRAL MOUNTAINS

CITY           SKY/WX    TMP DP  RH WIND       PRES   REMARKS
RUIDOSO        PTSUNNY   41  28  60 W21G29    29.94R

$$
NMZ527>531-042000-
NORTHEAST HIGHLANDS/NORTHEAST PLAINS

CITY           SKY/WX    TMP DP  RH WIND       PRES   REMARKS
LAS VEGAS      SNOW      25  23  92 SE14      29.97R VSB 1/4 WCI  13
RATON          LGT SNOW  24  18  77 NE17      30.00S WCI  11
CLAYTON        LGT SNOW  18  15  88 NE18      30.13S FOG     WCI   2

$$
NMZ532>537-042000-
EASTCENTRAL PLAINS

CITY           SKY/WX    TMP DP  RH WIND       PRES   REMARKS
TUCUMCARI      CLOUDY    23  20  88 NE18      30.13F WCI   9
CANNON AFB     FLURRIES  22  21  93 NE21      30.05S WCI   7
CLOVIS AIRPORT CLOUDY    21  19  93 NE24G30   30.07F WCI   4

$$
NMZ028-029-538-042000-
SOUTHEAST PLAINS

CITY           SKY/WX    TMP DP  RH WIND       PRES   REMARKS
ROSWELL        CLOUDY    40  33  76 NE21      30.02R WCI  30
ARTESIA        CLOUDY    43  39  87 N25G33    29.98S
CARLSBAD       CLOUDY    51  40  65 NW13      29.93F


$$


USA.gov is the U.S. government's official web portal to all federal, state and local government web resources and services.